Regional Weather Roundup
Issued by NWS Little Rock, AR

Home | Current Version | Previous Version | Graphics & Text | Print | Product List | Glossary On
Versions: 1 2 3 4 5 6 7 8 9 10 11 12 13 14 15 16 17 18 19 20 21 22 23 24 25 26 27 28 29 30 31 32 33 34 35 36 37 38 39 40 41 42 43 44 45 46 47 48 49 50
000
ASUS44 KLZK 250405
RWRLZK

WEATHER ROUNDUP FOR ARKANSAS
NATIONAL WEATHER SERVICE LITTLE ROCK AR
1100 PM CDT MON APR 24 2017

NOTE: "FAIR" INDICATES FEW OR NO CLOUDS BELOW 12,000 FEET WITH NO
SIGNIFICANT WEATHER AND/OR OBSTRUCTIONS TO VISIBILITY.

ARZ001-003-010-029-250500-
NORTHWEST ARKANSAS

CITY           SKY/WX    TMP DP  RH WIND       PRES   REMARKS
FAYETTEVILLE   CLEAR     61  41  47 VRB3      29.70R
FORT SMITH     PTCLDY    63  41  44 E3        29.69R
HARRISON       CLOUDY    55  39  54 S3        29.72R
BENTONVILLE    CLEAR     59  41  51 S6        29.70S
ROGERS         CLEAR     58  44  60 SE5       29.71R
SILOAM SPGS    CLEAR     61  37  41 S6        29.70R
HIGHFILL       CLEAR     59  43  55 S5        29.69R
$$

ARZ004-005-016-250500-
NORTH CENTRAL ARKANSAS

CITY           SKY/WX    TMP DP  RH WIND       PRES   REMARKS
BATESVILLE     CLEAR    N/A N/A N/A SE5       29.75S
FLIPPIN        CLEAR    N/A N/A N/A S5        29.70S
MTN HOME       CLEAR     58  38  47 S6        29.72
$$

ARZ040-041-250500-
WEST CENTRAL ARKANSAS

CITY           SKY/WX    TMP DP  RH WIND       PRES   REMARKS
MENA           PTCLDY    66  45  45 CALM      29.72F
MOUNT IDA      CLEAR     61  46  57 CALM      29.71S
$$

ARZ009-017-025-026-028-250500-
NORTHEAST ARKANSAS

CITY           SKY/WX    TMP DP  RH WIND       PRES   REMARKS
JONESBORO      CLEAR     57  54  89 CALM      29.75S
NEWPORT        CLEAR     60  52  74 MISG      29.75R
WALNUT RIDGE   CLEAR     61  54  77 SE6       29.75R
BLYTHEVILLE    CLEAR     61  57  87 S7        29.76S
$$

ARZ022-023-033-042-044-250500-
CENTRAL ARKANSAS

CITY           SKY/WX    TMP DP  RH WIND       PRES   REMARKS
LITTLE ROCK    PTCLDY    57  50  77 SE6       29.75R
N LITTLE ROCK    N/A     63  48  57 S5        29.75R
JACKSONVILLE   CLEAR     54  50  86 CALM      29.74R
CONWAY           N/A     57  48  72 S7        29.72S
SEARCY         CLEAR     53  51  93 CALM      29.76S
HOT SPRINGS    CLEAR     63  45  51 SE5       29.74S
RUSSELLVILLE   CLEAR     57  45  64 CALM      29.71F
$$

ARZ036-250500-
EAST ARKANSAS

CITY           SKY/WX    TMP DP  RH WIND       PRES   REMARKS
WEST MEMPHIS   CLEAR     60  58  92 SE3       29.76R
$$

ARZ050-053-066-070-073-250500-
SOUTHWEST ARKANSAS

CITY           SKY/WX    TMP DP  RH WIND       PRES   REMARKS
ARKADELPHIA    FAIR      56  55  97 CALM      29.75R
CAMDEN         CLEAR     55  48  76 CALM      29.75S
TEXARKANA      CLEAR     64  45  49 S9        29.74R
EL DORADO      CLOUDY    58  50  75 SE5       29.76S
DE QUEEN       CLEAR     55  53  93 CALM      29.71S
$$

ARZ056-057-069-250500-
SOUTHEAST ARKANSAS

CITY           SKY/WX    TMP DP  RH WIND       PRES   REMARKS
PINE BLUFF     CLEAR     59  50  72 S6        29.76S
STUTTGART      CLEAR     63  45  51 S6        29.76S
MONTICELLO     PTCLDY    60  49  66 S3        29.77S

$$





USA.gov is the U.S. government's official web portal to all federal, state and local government web resources and services.